User: anonymous   Login
Location: *
(38.3914°N, 75.0697°W)
Time: 17:51:54
(UTC+00:00)
Language:

CAS-6 - Orbit

View from above orbital plane
View from above orbital plane
View from above satellite
View from above satellite

Ground track
Ground track

The orbit data is extracted from the following two-line orbital elements,

1 44881U 19093C   21134.22327900 -.00000052  00000-0  20879-6 0  9993
2 44881  97.9227 213.4231 0016120  48.8006 311.4633 14.81446025 75665
Epoch (UTC): 14 May 2021 05:21:31
Eccentricity: 0.0016120
inclination: 97.9227°
perigee height: 613 km
apogee height: 636 km
right ascension of ascending node: 213.4231°
argument of perigee: 48.8006°
revolutions per day: 14.81446025
mean anomaly at epoch: 311.4633°
orbit number at epoch: 7566

The dashed part of the orbit path shows where the satellite is in the earth's shadow,  

DLR